Wind_Speed
14 14 14 14 15 15 16 16 16 17 17 17 17 16 16 15 15 15 14 13 12 11 11 10 10 9 8 8 8 8 8 8 9 8 9 8 7 7 7 7 7 7 7 7 7 7 7 7 6 6 5 5 4 4 3 4 4 4 4 4 2 4 6 5 6 9 9 10 13 14 12 11 11 9 8 8 9 10 12 12 11 10 10 8 8 8 9 9
14 14 14 15 15 16 16 16 17 17 17 16 16 16 15 15 15 14 14 13 12 11 11 10 9 9 8 8 8 8 8 9 9 8 8 8 7 7 7 7 7 7 6 7 7 7 7 6 6 5 5 5 4 4 3 3 3 4 5 4 5 6 9 9 11 11 10 11 12 11 10 9 11 9 5 5 9 9 10 14 12 10 9 9 9 9 9 9
15 15 15 15 16 16 17 17 17 17 16 16 16 15 15 15 15 14 14 13 12 11 11 10 10 9 9 8 8 8 7 9 8 7 8 8 8 7 7 7 7 7 7 7 7 6 6 6 6 6 6 5 4 5 4 3 3 3 4 3 6 9 10 12 14 12 11 12 10 10 9 9 13 11 7 7 9 8 10 15 14 10 9 9 11 11 10 10
15 15 15 16 16 17 17 17 17 17 16 16 16 16 16 16 15 14 14 13 12 12 11 11 10 10 9 9 8 7 6 8 7 7 8 8 8 8 7 7 7 7 7 7 7 6 6 6 6 5 5 5 3 5 4 3 3 4 5 6 7 8 11 12 12 10 10 10 10 10 8 9 13 11 10 11 9 7 11 16 16 13 11 11 12 12 12 12
15 16 16 16 17 17 17 17 17 17 17 17 17 17 17 16 16 15 14 14 13 13 12 11 11 10 9 9 8 6 6 7 7 6 7 7 7 8 7 8 8 7 7 7 7 7 7 6 5 4 4 3 2 4 4 2 3 4 6 9 8 7 10 10 9 8 8 9 10 10 9 11 13 11 11 13 12 11 12 16 17 17 16 14 13 14 13 13
17 17 17 17 17 17 17 17 17 18 18 18 18 18 18 17 17 16 15 15 14 14 13 12 11 10 9 9 7 6 6 6 6 5 5 6 6 7 8 8 8 8 8 7 8 8 7 6 5 4 3 1 2 5 4 3 3 4 7 10 8 8 11 9 8 9 9 10 11 12 12 12 13 13 14 14 14 14 13 16 18 19 19 16 15 15 14 14
18 18 19 19 19 19 19 19 19 19 20 20 20 20 19 18 18 17 17 16 15 14 13 12 11 10 9 9 8 7 8 8 8 8 7 6 6 7 8 9 9 9 9 8 9 8 7 6 5 5 4 2 5 8 6 5 6 4 8 11 7 8 12 11 11 11 11 11 13 14 13 14 15 15 16 16 16 14 14 17 18 19 19 17 16 16 16 15
19 19 20 20 21 21 21 21 22 22 22 22 21 21 20 19 19 18 18 17 16 15 14 13 12 11 10 10 9 8 9 9 9 10 10 9 9 8 8 9 10 10 10 10 10 9 8 8 7 6 6 5 7 9 7 6 8 8 10 12 9 9 13 12 12 12 13 13 14 15 15 15 16 17 17 18 17 15 15 18 19 19 19 18 18 18 17 15
20 20 20 20 21 21 22 23 23 24 24 23 22 22 21 20 20 20 19 18 17 16 15 14 13 12 11 11 10 9 11 10 9 11 10 10 10 10 10 10 10 11 11 11 10 10 10 9 8 7 8 9 8 9 8 6 9 10 10 12 11 11 13 13 14 13 14 14 15 15 15 16 18 19 19 19 18 16 16 18 19 19 18 18 19 19 17 16
21 21 20 20 20 20 21 21 23 23 23 23 23 22 22 22 21 21 20 20 19 18 17 16 15 14 13 13 12 11 12 11 10 11 11 11 11 12 12 12 12 12 12 12 11 12 12 10 9 8 9 10 9 11 11 9 11 12 12 13 13 14 15 15 15 15 15 14 16 17 17 18 20 21 20 19 17 16 16 17 18 19 19 19 19 19 18 17
23 22 21 20 20 20 20 20 21 22 22 23 23 23 23 22 22 22 21 21 20 19 18 17 17 16 15 15 13 13 13 12 12 12 12 12 12 12 13 13 14 14 13 13 12 12 13 12 11 10 11 10 10 12 12 12 12 12 13 14 14 15 17 16 15 15 16 16 16 17 18 20 22 22 20 19 18 17 17 18 19 19 19 19 19 19 18 17
26 25 24 22 21 20 20 20 20 21 22 22 23 23 23 23 23 23 22 22 21 21 20 19 19 18 17 17 15 14 14 14 14 14 14 14 13 13 14 14 15 15 15 14 13 14 14 13 12 13 12 10 12 12 11 11 12 12 14 15 14 16 18 17 16 15 15 16 16 16 18 21 21 19 17 16 16 17 18 19 20 20 19 19 19 18 18 17
29 27 26 25 24 22 21 21 20 21 22 22 23 23 24 24 23 23 23 23 22 22 21 21 20 20 19 19 17 16 15 15 16 15 14 15 15 15 15 16 16 15 16 15 15 15 15 15 15 15 14 13 14 14 13 13 14 14 15 18 17 17 19 18 17 15 14 15 15 14 18 20 17 14 13 13 14 16 17 18 19 19 19 18 18 18 18 17
31 30 29 27 26 25 24 23 22 21 21 22 23 24 24 24 24 24 24 24 24 23 23 22 22 22 22 21 19 18 17 17 17 16 16 16 16 17 17 17 17 16 17 16 16 16 16 16 16 17 16 15 16 16 16 16 17 17 16 18 17 14 14 13 14 14 14 15 15 14 17 18 17 15 15 16 17 18 18 18 19 19 19 19 18 18 19 19
34 33 32 30 29 27 26 25 24 23 22 22 23 24 24 25 25 25 25 25 25 25 24 24 24 24 24 24 21 20 18 18 17 16 17 17 16 17 17 18 18 18 17 17 17 17 17 18 18 18 18 16 16 17 17 17 17 17 16 15 13 10 10 12 13 14 16 17 16 16 14 13 13 15 16 19 20 20 20 20 20 20 20 20 20 20 20 20
38 36 35 33 32 30 29 28 26 25 24 23 23 24 24 25 26 26 26 26 26 26 26 26 25 26 26 25 23 22 20 19 18 18 19 18 19 18 17 19 19 18 19 18 19 19 19 19 19 19 19 18 18 19 17 16 15 15 16 16 12 10 10 12 13 14 16 17 17 17 15 12 13 15 17 20 21 21 21 21 20 20 21 21 21 22 22 22
40 39 38 36 35 33 32 30 29 28 26 25 25 25 25 25 26 27 27 28 28 28 27 28 27 28 28 25 24 22 19 17 18 18 18 18 19 19 19 19 19 19 20 20 20 20 20 21 20 20 20 19 20 19 14 13 13 11 15 17 13 10 11 13 15 15 17 18 17 18 19 17 17 19 21 23 23 24 23 23 23 23 24 24 24 24 25 25
42 41 40 39 38 36 34 33 32 30 29 28 27 26 26 26 26 27 28 29 29 29 29 29 28 29 29 27 25 23 19 19 19 18 18 18 19 19 19 20 20 20 21 21 21 21 21 22 22 21 21 22 22 19 16 15 13 9 11 13 11 9 10 10 14 16 17 18 18 19 22 23 22 23 25 25 25 26 25 26 27 27 26 26 26 27 27 28
44 43 42 41 40 39 37 36 34 33 31 30 30 28 27 27 28 29 29 29 31 30 29 29 30 30 29 28 26 23 21 21 21 19 18 18 19 19 19 19 20 20 21 23 22 23 23 24 25 24 23 24 24 23 21 19 15 12 14 15 15 14 14 14 15 18 19 20 22 23 26 28 26 25 25 26 26 27 28 29 30 29 28 28 28 29 29 29
45 45 44 43 42 41 39 38 37 35 34 33 32 30 30 29 30 30 30 31 31 30 29 31 32 31 32 31 29 26 25 24 22 20 19 17 17 18 19 20 20 20 22 23 23 24 24 26 29 27 23 22 22 22 21 20 16 16 18 20 22 21 22 21 19 21 23 24 27 28 29 30 29 27 25 27 29 30 32 32 33 32 29 28 29 31 31 30
46 46 46 45 44 42 41 40 39 37 36 35 34 33 32 31 30 30 32 31 31 31 32 34 34 35 36 34 32 30 28 28 26 23 22 20 19 18 19 20 20 21 21 21 24 26 26 29 30 26 22 21 20 17 17 18 17 17 20 22 23 23 25 23 19 21 24 26 29 30 30 32 32 30 27 27 31 35 35 35 35 34 31 30 31 32 32 31
44 45 46 46 46 44 43 42 40 40 39 38 37 35 34 32 31 31 32 32 33 33 33 34 35 38 39 38 36 34 32 32 30 28 26 24 23 21 20 20 20 20 20 21 25 27 28 31 30 24 22 22 21 18 18 19 19 18 20 22 23 24 24 21 19 21 23 25 28 28 30 33 33 33 31 30 35 38 37 36 37 36 35 34 33 34 33 32
42 43 44 46 46 45 45 44 43 43 42 41 38 37 35 33 33 33 32 34 36 36 36 36 37 38 40 40 40 37 36 35 33 32 30 27 25 24 24 23 22 21 21 24 26 26 28 28 25 21 20 21 22 22 22 23 23 23 23 24 25 24 22 20 20 21 21 23 27 29 33 38 38 38 38 34 36 38 38 38 38 38 36 35 35 35 35 34
40 40 41 44 44 44 45 44 45 45 43 42 39 37 36 34 34 33 32 34 39 40 39 38 38 40 41 41 40 37 36 36 36 36 33 30 27 25 27 26 24 26 26 28 28 29 31 27 23 21 20 21 21 21 22 22 23 23 24 24 24 23 21 20 19 20 23 26 28 29 32 38 38 34 33 31 28 29 31 31 30 30 29 28 28 29 31 33
42 40 40 41 41 43 43 45 47 45 43 41 38 37 35 34 33 31 30 31 39 44 41 42 43 43 43 43 40 38 37 38 38 38 35 31 29 27 28 27 27 30 29 27 28 32 34 30 26 26 25 26 25 23 23 23 22 21 21 22 22 21 20 21 19 19 23 24 23 19 15 22 26 20 19 22 21 22 26 28 28 28 27 27 25 25 26 28
47 45 43 40 40 40 41 46 45 41 41 39 36 35 33 33 30 28 27 26 37 47 45 44 43 42 44 45 43 38 37 42 41 40 37 32 30 29 28 30 31 31 29 26 26 31 33 31 29 28 28 29 29 29 28 25 24 23 22 20 18 18 18 20 20 19 19 17 16 13 10 18 31 32 28 28 27 30 32 34 34 32 30 30 29 29 28 26
54 51 47 43 41 40 41 43 39 38 40 36 33 32 32 32 27 26 22 15 29 45 45 44 44 42 42 41 40 36 37 43 41 39 40 35 33 32 32 34 33 32 31 25 24 29 31 29 30 29 28 30 33 32 30 27 25 25 24 23 20 19 20 20 20 19 20 22 22 21 20 24 37 43 38 33 30 32 34 34 33 31 31 30 30 30 29 26
62 59 56 50 45 41 41 40 38 37 35 30 28 28 29 28 23 23 14 4 17 28 28 34 40 41 41 38 35 35 39 43 37 36 37 33 33 36 36 36 35 35 33 29 30 32 30 28 28 28 27 29 31 30 28 26 25 25 24 23 22 21 22 22 21 20 21 23 21 21 19 17 28 39 33 28 29 30 32 30 26 25 26 28 27 28 28 25
61 62 61 59 54 48 44 44 43 38 33 29 25 23 24 22 20 18 7 6 22 25 20 25 29 33 36 35 34 35 39 41 38 36 34 30 32 35 36 36 36 34 32 33 36 34 30 30 29 28 27 28 29 27 26 24 23 25 23 23 22 21 21 21 21 22 20 18 18 20 18 12 24 38 29 23 27 28 26 22 19 21 22 23 24 26 25 23
54 59 58 60 63 59 53 50 47 42 37 33 28 25 22 18 20 16 6 15 27 23 22 24 24 28 29 31 34 36 38 39 39 36 33 32 33 33 34 34 34 34 31 31 34 35 34 33 32 31 30 30 29 27 26 25 24 25 22 20 20 19 20 19 20 19 13 13 20 25 24 18 15 20 14 15 21 19 18 18 19 21 20 20 21 24 24 21
48 55 56 57 61 63 62 58 53 48 43 39 36 31 24 20 22 15 10 28 32 25 25 21 22 28 29 30 31 31 35 37 38 37 35 35 35 35 36 35 34 33 33 34 34 36 38 37 35 35 34 32 30 28 27 26 26 25 21 19 16 11 11 12 11 10 6 8 15 18 21 23 19 12 7 9 12 13 18 22 21 20 19 18 19 23 22 18
44 48 50 54 56 58 61 61 57 51 46 43 38 33 30 23 21 20 25 31 24 24 29 23 24 29 27 29 29 28 30 32 34 36 36 36 37 39 39 38 37 31 29 36 38 37 40 42 39 37 37 35 33 30 29 29 28 26 22 18 11 4 3 4 3 5 8 11 11 8 11 21 31 32 24 19 17 19 25 28 25 22 20 19 19 21 21 19
44 45 45 48 51 53 57 56 55 50 47 47 39 35 34 22 21 37 43 33 15 11 16 17 22 26 24 27 30 29 29 29 30 30 32 35 35 38 39 39 39 34 27 28 31 33 32 33 36 37 38 39 39 37 35 33 31 28 26 22 15 6 1 4 4 4 8 13 14 12 13 18 25 31 31 27 22 19 22 25 27 26 23 20 19 20 23 22
37 41 42 43 43 46 51 53 54 51 48 48 40 37 34 24 32 48 50 49 34 15 11 9 12 20 24 27 30 31 30 30 31 29 30 34 34 37 40 39 39 39 33 23 20 24 20 18 24 28 28 29 32 34 35 35 30 27 26 24 22 16 7 4 4 3 2 5 8 12 11 10 12 16 20 17 11 9 12 16 20 24 24 21 19 20 22 24
33 36 38 40 41 43 46 47 51 49 47 46 40 40 38 34 47 56 56 60 49 32 26 15 10 18 25 29 30 31 31 32 32 31 32 34 35 36 37 38 39 40 37 27 20 22 21 20 23 21 18 16 16 18 25 30 27 23 20 21 25 25 19 12 7 7 7 7 5 12 13 16 19 21 20 14 13 15 19 22 22 22 23 21 20 19 20 22
36 38 39 42 43 44 45 45 46 45 47 46 42 45 46 47 55 60 61 59 51 46 40 25 18 23 27 31 33 32 32 33 31 32 35 35 35 37 36 37 38 38 39 36 27 22 19 21 24 23 22 21 16 14 19 25 22 17 20 26 28 26 25 20 13 12 10 9 8 13 20 27 29 31 31 27 28 29 29 31 28 24 23 23 20 18 18 19
38 41 43 45 45 45 47 45 43 41 45 48 48 50 54 60 60 59 57 52 49 50 44 33 31 30 29 32 35 34 33 33 32 32 35 34 34 38 40 39 37 37 38 37 33 26 19 16 17 18 20 21 21 19 19 26 25 19 21 25 25 22 23 19 8 5 4 6 8 14 23 27 23 24 27 23 24 25 25 25 25 23 23 23 21 18 17 17
41 41 44 47 46 45 47 44 41 42 45 47 51 53 59 64 62 61 57 47 41 44 45 43 39 34 32 32 33 35 34 33 35 34 32 32 32 34 36 38 39 37 35 35 32 29 24 18 15 18 19 17 18 19 20 27 29 27 24 23 20 15 15 17 10 3 4 4 6 11 20 26 28 29 27 23 21 21 18 18 19 20 21 22 21 20 20 20
41 40 44 49 47 44 46 44 41 44 49 52 54 54 58 62 61 59 56 43 34 39 46 48 43 36 36 36 34 36 36 37 39 37 33 32 33 34 33 32 33 34 35 37 35 31 29 22 16 19 22 19 20 24 26 27 29 31 28 24 22 16 12 18 18 9 4 3 6 8 11 19 28 30 28 25 19 14 12 13 14 16 19 21 22 22 21 21
40 40 46 49 46 43 44 45 45 49 52 55 55 53 55 59 59 56 54 46 39 41 46 47 44 39 38 38 36 36 37 40 41 39 36 35 35 36 34 32 30 28 27 31 34 34 32 27 19 18 20 22 25 28 29 29 30 33 32 28 28 25 17 16 20 19 12 5 3 5 7 12 16 15 15 12 6 5 8 9 9 13 18 21 22 24 24 22
38 41 48 48 45 42 43 49 53 54 56 56 55 55 56 55 54 53 55 52 47 43 41 39 39 41 41 38 36 35 35 38 41 41 40 40 39 37 36 34 32 27 24 26 32 33 33 33 28 24 24 26 29 29 28 29 31 33 35 35 34 32 25 14 12 21 26 18 11 6 8 17 18 10 8 8 8 10 11 10 11 13 15 18 22 24 26 25
39 43 48 48 46 42 43 53 58 55 58 60 57 59 60 55 50 48 48 49 51 49 43 37 36 39 40 38 36 35 33 35 39 42 44 45 44 41 37 35 32 30 28 28 30 31 32 34 32 30 31 29 28 30 28 29 32 33 34 36 34 34 35 25 13 16 24 29 28 16 13 24 24 14 11 11 12 14 14 15 15 14 15 17 22 26 27 27
42 44 46 47 46 43 44 53 59 57 59 60 59 60 61 56 51 47 41 42 50 55 52 47 43 40 39 37 34 33 33 33 36 41 43 43 44 42 40 38 34 32 31 30 30 30 31 31 30 27 27 26 27 30 30 29 31 33 36 38 38 39 40 36 29 22 19 25 25 12 10 22 21 16 20 20 19 20 20 19 18 17 18 18 22 28 29 28
44 44 46 48 48 47 47 51 56 60 61 61 61 62 61 57 54 48 41 42 49 52 54 55 51 45 42 38 32 31 33 32 33 37 39 40 40 40 40 41 40 37 36 34 34 32 31 31 27 16 10 14 17 19 24 30 32 36 41 41 41 42 37 35 36 30 25 30 25 13 15 25 20 17 19 17 18 22 22 20 19 20 20 20 23 29 30 30
45 45 45 47 50 53 54 52 52 57 62 65 64 63 63 62 59 53 46 42 42 44 49 54 53 48 44 41 37 34 34 36 36 33 34 37 39 39 39 41 42 42 40 38 36 34 32 33 30 20 11 11 13 14 21 29 34 41 45 44 42 41 38 37 36 31 29 30 26 25 30 33 28 24 19 15 17 20 20 20 21 21 20 21 24 29 31 32
43 46 45 45 46 51 56 56 55 56 59 63 65 64 64 65 63 59 53 45 40 40 45 49 49 45 42 43 45 44 43 44 40 33 31 33 36 39 40 41 43 42 40 38 37 35 33 32 34 33 31 31 34 34 31 27 27 34 40 43 45 44 43 40 35 37 36 24 25 41 45 40 38 32 25 23 22 22 22 21 21 22 21 23 26 29 31 31
42 46 48 47 45 47 50 51 54 58 60 63 66 66 67 69 65 55 51 51 48 44 44 44 45 46 46 48 50 52 52 48 43 41 40 37 36 36 37 39 41 41 40 39 38 37 35 33 36 39 42 46 49 46 39 34 32 31 31 35 39 41 45 46 44 48 43 25 30 47 42 40 48 42 34 35 30 26 27 25 24 25 23 24 26 29 31 32
44 44 47 49 46 48 53 50 48 54 60 64 68 66 64 67 67 58 52 53 53 49 46 44 46 51 53 52 50 50 49 45 45 48 48 43 40 37 35 35 37 39 40 40 40 41 40 40 43 43 43 48 50 46 44 42 39 34 29 31 34 35 42 49 52 53 46 37 43 50 38 41 52 45 40 42 36 33 34 29 26 26 24 26 29 31 33 33
48 46 45 47 47 47 53 55 48 49 57 62 64 64 61 62 66 67 60 51 49 50 50 50 54 57 55 51 47 47 47 45 48 53 52 47 44 43 40 37 37 39 40 41 43 44 43 45 47 44 42 48 50 48 48 46 40 36 32 31 33 37 43 48 49 50 49 49 55 53 44 49 52 43 39 36 31 33 35 30 28 28 28 29 30 32 34 33
51 51 44 40 41 43 47 50 47 44 51 58 60 62 63 63 66 69 65 56 51 51 53 55 58 58 55 52 50 51 53 53 55 57 55 49 47 49 48 45 45 42 40 42 45 45 45 45 46 42 39 46 54 52 50 49 46 45 42 40 41 43 44 45 45 45 47 51 55 52 50 56 55 47 42 38 33 33 33 32 30 30 31 32 32 34 35 34
49 54 50 41 37 37 40 44 43 40 44 51 56 59 62 62 63 65 65 64 61 56 54 56 59 57 54 52 53 55 58 58 58 56 53 47 46 50 51 50 51 47 44 44 45 46 46 44 45 41 34 44 57 52 47 50 48 46 51 56 57 53 45 43 46 47 47 50 51 49 53 59 55 49 47 46 41 35 34 34 32 31 33 34 33 34 33 33
46 49 53 49 43 39 37 37 39 42 45 46 49 54 56 56 56 57 58 59 62 62 58 57 58 56 54 54 56 58 58 57 57 55 53 48 46 47 48 48 49 48 46 46 45 47 47 44 47 41 32 42 54 46 42 43 32 34 55 67 66 61 51 46 49 50 49 50 49 51 56 57 52 48 49 48 45 40 38 37 35 34 34 33 33 33 34 34
Wind_Direction
202 199 198 197 196 195 193 192 190 188 187 187 188 187 188 189 192 195 199 204 209 213 217 216 216 217 218 222 227 236 241 244 247 251 255 253 253 255 257 261 264 265 266 271 273 274 277 278 280 281 278 278 276 268 264 254 225 215 184 164 231 236 209 187 198 224 224 237 247 252 263 268 263 251 236 244 253 261 274 275 272 274 275 277 280 284 289 294
201 200 199 198 198 197 197 196 194 192 190 191 192 193 195 198 201 205 210 214 217 219 217 216 218 224 230 235 239 243 248 249 248 253 260 260 259 260 262 263 264 267 268 272 276 277 281 285 287 292 288 285 289 282 272 260 232 211 179 178 247 230 205 205 214 221 220 236 249 253 255 250 258 264 240 251 261 261 279 281 273 268 276 288 290 291 292 292
202 202 202 202 200 200 200 199 198 197 196 198 199 200 203 207 212 216 219 219 219 218 218 221 226 234 239 241 244 246 253 255 254 256 259 261 264 264 263 266 265 267 271 271 273 278 284 292 295 297 295 292 291 288 277 257 239 202 181 208 251 239 236 240 243 240 231 242 255 252 248 244 257 269 265 260 264 276 290 283 279 280 290 296 293 295 297 294
206 206 206 205 205 204 204 203 202 202 203 205 207 209 213 218 222 224 223 220 219 221 223 228 233 237 241 242 245 245 253 261 259 255 257 258 263 266 263 264 265 266 269 269 271 279 288 292 294 295 290 288 290 285 273 253 232 182 190 224 232 242 253 250 252 251 242 249 256 254 251 251 260 269 269 268 266 270 276 276 283 292 297 295 293 296 297 297
212 211 211 211 211 210 210 209 208 209 210 213 216 220 223 227 228 226 223 221 222 226 228 231 235 237 240 242 243 243 247 260 260 252 256 260 259 263 263 261 261 264 265 264 271 279 285 285 285 285 272 284 312 282 254 228 226 203 219 232 229 252 262 254 256 257 254 256 259 261 254 255 266 271 268 270 269 260 261 272 284 290 292 293 293 293 293 293
219 218 218 218 217 217 217 216 216 216 218 221 225 228 231 231 228 224 223 223 227 230 231 233 235 237 239 242 242 243 240 241 251 251 260 269 264 260 260 259 260 262 259 261 271 274 275 273 267 254 233 234 274 261 246 231 236 233 253 248 238 259 265 261 265 265 264 265 266 267 266 269 275 274 268 268 268 266 264 267 274 281 286 288 288 288 288 287
224 224 224 224 224 223 223 224 224 225 226 229 232 234 234 231 226 224 224 226 229 231 234 235 237 238 240 245 243 246 245 237 247 256 261 268 269 264 259 258 258 257 256 259 265 265 263 258 249 243 217 189 255 258 251 254 254 238 260 262 249 263 269 267 269 270 269 270 271 272 274 277 275 271 271 269 268 271 270 268 269 274 279 283 284 284 283 283
226 226 227 227 228 228 229 230 231 232 233 235 236 236 233 229 225 225 227 228 231 233 236 237 239 241 243 248 246 246 251 244 248 257 259 262 261 260 258 256 254 251 254 258 258 254 252 248 240 239 226 213 245 261 253 262 269 246 252 268 270 270 272 271 271 273 273 273 274 275 275 276 275 273 271 270 272 272 268 268 270 271 275 278 280 281 281 281
227 227 228 228 229 230 232 233 234 235 235 236 235 233 230 228 227 227 229 230 233 234 237 239 241 244 246 249 249 253 256 251 254 259 259 258 253 253 253 250 247 246 251 254 251 247 246 244 239 242 244 238 245 263 260 260 269 260 260 274 280 277 275 275 274 274 274 275 275 276 276 275 274 273 271 272 273 272 267 266 268 269 272 275 277 279 280 278
229 230 230 230 231 231 232 233 233 233 233 233 231 230 229 228 229 229 231 232 234 236 239 242 243 244 248 249 251 257 256 254 260 261 261 258 253 251 249 246 245 246 250 249 245 245 246 244 240 242 253 258 256 260 266 264 265 271 277 279 281 282 279 278 279 279 277 276 276 275 277 277 274 272 273 274 274 274 270 267 267 268 269 271 274 276 277 277
231 231 232 232 233 233 233 234 233 232 232 231 230 229 229 230 231 232 233 235 237 239 241 243 245 247 250 251 252 257 256 257 263 261 261 260 255 252 249 247 246 247 249 247 244 245 246 245 245 249 254 262 263 261 264 266 268 274 279 280 283 284 282 280 281 282 282 279 275 275 276 273 272 274 277 279 278 274 271 269 268 268 269 271 272 274 275 275
234 233 233 233 234 234 235 235 234 233 232 232 231 231 231 233 234 234 236 238 240 242 244 246 248 249 251 253 253 255 257 261 263 261 261 262 259 256 252 249 248 249 249 248 248 246 246 246 247 252 257 261 267 268 264 265 273 279 282 282 282 284 285 285 283 283 284 281 278 277 275 271 274 282 284 279 275 271 270 269 268 269 270 271 272 272 272 272
237 236 235 234 234 235 235 236 236 235 234 233 233 233 234 234 235 237 238 240 242 244 247 249 252 253 254 256 254 254 258 262 263 263 264 263 262 260 256 253 250 250 250 250 251 249 247 248 248 253 256 261 266 269 272 275 278 282 286 286 285 289 289 289 288 287 283 280 282 277 271 273 278 282 280 272 269 271 273 272 270 271 271 271 272 272 271 270
239 238 237 236 235 235 236 236 237 237 236 236 236 236 236 237 238 238 240 242 243 246 248 250 253 255 256 257 256 255 257 259 262 266 267 265 263 261 259 257 254 251 252 252 252 251 250 249 251 255 255 260 267 271 276 280 281 283 286 287 291 297 294 289 287 286 280 278 281 275 272 278 279 273 271 272 272 274 277 275 270 269 271 273 274 273 271 269
241 241 240 239 237 237 236 237 237 237 238 238 239 239 239 239 240 241 242 243 245 247 249 251 253 256 258 258 256 257 258 258 262 266 267 266 263 262 260 258 256 254 253 253 253 253 253 253 254 258 258 261 268 271 275 280 284 288 287 288 293 292 288 287 282 278 278 280 280 272 271 280 278 272 270 270 272 275 277 275 270 269 271 273 274 273 272 270
241 242 241 241 240 239 238 238 238 237 238 239 240 240 241 242 242 243 244 245 246 248 249 251 253 255 258 259 256 255 257 259 262 263 264 266 264 262 261 259 258 256 255 255 255 254 255 256 256 260 261 263 267 272 277 281 283 285 282 284 288 278 271 277 277 276 279 281 280 273 268 266 265 267 270 272 275 277 278 276 271 269 271 272 273 273 272 271
242 242 242 242 242 241 240 240 239 239 239 239 241 241 242 243 244 245 246 247 248 249 250 251 252 255 257 256 255 255 257 260 260 262 263 264 265 264 262 261 259 257 256 255 255 256 256 257 257 260 263 263 266 271 271 272 278 279 275 277 284 277 264 268 273 276 278 280 282 279 275 271 267 267 270 274 277 277 277 275 271 270 271 272 272 272 272 271
242 243 243 242 243 243 242 242 241 241 241 241 242 242 243 244 246 246 247 247 248 249 250 251 251 255 257 255 256 257 258 259 260 261 263 264 267 267 263 261 259 256 256 255 255 256 256 258 258 259 261 260 262 263 260 265 275 278 273 272 274 269 260 264 272 275 276 276 277 278 279 283 282 279 278 277 277 276 275 273 272 271 271 272 272 272 273 273
242 243 243 243 243 243 243 243 243 242 243 243 244 244 245 246 247 248 248 248 248 248 251 254 253 254 257 257 258 258 255 257 260 261 263 265 265 264 263 260 258 257 256 255 256 256 256 257 257 255 257 260 266 268 270 276 276 271 270 262 258 260 260 263 269 272 275 276 276 277 280 285 285 281 279 279 278 276 275 274 273 273 273 274 274 273 273 274
241 242 243 244 244 244 244 244 244 244 244 245 246 247 248 248 250 251 250 249 250 251 252 255 254 254 256 256 256 256 257 258 260 262 263 264 264 263 261 259 257 256 256 258 260 258 256 257 257 256 257 263 271 276 281 284 274 262 262 258 259 266 269 271 270 270 273 275 276 279 281 283 283 278 273 273 273 273 273 274 276 277 277 274 272 272 272 272
241 242 243 243 244 244 245 245 245 245 245 246 247 248 249 250 253 255 254 253 253 251 250 252 254 254 254 255 255 256 257 259 259 261 262 262 265 264 260 259 257 255 256 259 259 257 256 257 258 258 261 266 269 270 274 276 267 258 260 262 265 269 273 276 272 268 271 273 276 280 281 280 281 278 271 266 268 271 273 275 278 280 278 274 270 269 269 270
241 243 243 243 244 244 244 245 245 245 246 247 248 249 251 253 255 256 258 258 254 250 250 250 252 253 253 254 255 254 254 256 258 259 262 263 263 263 261 259 257 256 255 253 253 257 258 258 261 262 263 267 265 254 248 252 254 254 260 267 269 271 276 278 272 270 272 275 279 282 282 281 281 280 274 267 269 275 277 277 278 278 277 274 271 270 270 270
242 242 244 244 244 244 245 245 245 245 245 247 248 250 252 255 256 257 261 263 258 253 250 249 250 253 254 253 253 254 255 255 257 258 259 260 260 260 259 256 255 256 255 253 252 256 259 262 266 263 258 259 258 254 250 250 253 256 260 264 267 272 276 275 275 279 279 278 281 285 285 283 282 280 277 273 272 276 278 277 277 277 278 275 271 269 267 266
242 242 243 244 244 244 245 246 245 245 246 247 249 251 252 254 257 259 262 266 264 257 252 251 251 252 252 253 253 253 254 254 255 256 254 255 256 256 257 258 257 254 254 257 258 259 259 263 268 264 259 256 255 258 259 256 258 262 264 265 267 272 274 274 278 284 286 284 285 290 290 286 285 285 285 282 275 272 273 274 275 277 277 274 271 267 265 263
242 243 244 245 245 245 245 246 245 245 247 248 249 251 253 254 256 259 262 268 269 261 255 253 252 251 251 252 251 251 253 252 251 253 252 252 253 253 256 258 255 253 254 256 260 262 261 260 260 259 259 260 259 260 260 261 263 266 268 270 273 275 271 268 269 274 282 287 291 297 296 287 287 287 287 288 281 276 278 278 278 278 275 271 272 271 270 266
243 244 245 246 245 245 246 245 246 248 248 249 251 252 252 253 255 258 261 270 271 263 257 255 253 252 250 249 249 248 251 252 249 250 252 250 251 253 254 255 253 253 253 252 255 261 261 259 256 254 255 258 260 260 260 262 264 263 264 267 270 272 268 264 266 268 273 280 285 285 283 285 285 280 277 277 276 276 278 280 281 280 276 273 274 274 271 270
241 242 243 245 245 246 246 246 247 248 248 248 249 250 251 251 252 254 257 275 273 263 259 256 252 250 249 249 249 244 244 249 247 247 249 249 250 252 251 252 253 252 251 247 245 250 255 255 256 255 254 256 258 259 261 262 260 260 264 264 261 262 263 266 270 266 266 273 275 273 275 281 281 282 283 282 278 278 277 281 284 283 280 277 276 274 270 270
239 240 240 241 243 245 247 249 247 244 246 245 243 245 245 244 245 246 244 259 265 262 259 253 249 249 248 248 248 241 241 247 247 245 248 247 248 249 249 250 251 253 253 244 239 247 254 254 257 258 256 257 259 261 263 262 258 257 262 263 260 261 263 265 269 266 271 277 273 269 271 270 274 280 288 291 284 283 285 289 289 283 279 274 271 270 266 265
240 239 240 240 241 243 244 245 244 243 243 240 238 241 238 237 235 228 207 235 250 255 254 247 244 245 245 242 240 239 240 244 244 246 247 246 246 246 248 248 246 248 250 247 245 248 252 254 257 258 256 256 258 260 261 259 255 255 259 261 261 264 265 265 268 270 274 271 259 260 255 249 278 284 286 285 282 288 296 298 291 280 274 269 263 258 256 257
241 240 239 240 240 240 242 243 245 244 243 242 242 241 237 233 219 196 168 238 245 253 251 242 241 242 242 238 232 232 237 240 243 244 241 241 244 245 246 246 243 240 241 245 248 247 246 249 252 253 253 254 255 257 259 257 254 255 257 259 262 267 269 269 271 269 271 262 255 259 249 232 271 298 298 281 284 296 300 295 292 285 277 270 256 247 247 250
240 240 239 239 239 239 240 242 244 245 246 246 244 241 237 226 207 183 211 238 242 253 245 232 234 238 239 238 234 234 236 239 242 241 238 238 240 242 241 238 235 234 234 236 241 245 245 244 245 248 250 252 255 257 258 257 255 254 253 253 259 268 271 274 268 246 236 263 264 264 252 231 232 262 296 290 289 296 292 292 294 287 281 272 253 241 240 239
234 238 239 239 238 238 237 238 242 246 248 246 244 239 228 211 197 202 225 236 248 256 243 233 234 234 235 238 241 243 240 239 241 240 240 239 239 241 241 239 234 228 229 234 238 244 250 250 249 250 251 253 255 254 253 253 251 249 243 236 230 225 256 251 214 207 226 250 262 252 228 226 236 251 263 271 274 277 281 287 286 280 280 275 254 238 231 227
229 232 238 240 240 239 237 236 239 242 244 242 238 228 217 201 206 220 225 226 232 256 246 240 239 234 231 229 229 232 232 234 237 237 239 238 238 241 242 243 240 234 234 240 238 240 249 257 255 252 253 254 253 249 248 249 245 241 236 225 209 183 206 241 213 226 240 247 252 231 215 231 247 259 269 275 277 276 276 279 280 275 274 273 260 239 228 228
232 231 235 240 242 242 241 239 239 240 240 237 227 210 200 202 224 228 228 227 227 242 261 237 222 223 221 220 221 222 223 228 232 230 233 234 233 236 237 237 239 237 235 238 237 232 237 255 256 253 255 254 253 253 252 251 248 247 246 237 223 210 205 225 205 201 253 278 244 207 203 232 246 263 277 283 281 277 279 282 283 278 269 266 262 244 233 234
236 235 237 239 239 241 241 239 240 237 235 233 217 198 194 205 222 227 230 230 226 233 248 241 213 210 208 211 216 216 218 224 227 224 227 231 232 236 238 237 237 233 228 227 231 231 234 251 257 256 256 250 250 252 244 240 243 247 241 229 225 223 225 237 252 261 289 320 249 202 218 245 253 264 268 265 267 272 280 281 280 280 271 258 256 248 237 235
234 237 238 237 237 239 239 238 239 232 229 226 204 191 203 218 227 229 230 230 224 225 234 233 221 211 202 206 211 210 213 220 223 221 224 230 233 236 237 238 237 232 230 228 224 223 228 245 252 250 252 251 247 246 229 222 229 229 213 217 226 227 227 235 260 277 278 291 260 225 242 256 262 269 265 258 264 270 275 277 273 274 268 253 248 244 233 228
233 237 238 237 234 236 237 238 238 227 222 219 203 202 222 232 236 236 234 231 224 222 225 223 221 215 203 202 208 209 210 214 219 221 223 225 231 235 235 237 238 235 238 235 228 228 229 238 249 246 249 251 246 245 225 211 216 215 210 223 230 228 225 226 253 303 247 263 260 231 247 259 256 265 269 261 264 273 278 278 273 266 258 247 240 233 225 221
232 237 241 237 232 236 238 234 231 222 214 210 208 218 231 237 240 238 233 229 222 219 222 224 225 222 214 211 212 212 210 212 216 218 221 223 230 238 236 236 239 239 241 236 226 229 233 238 248 240 239 245 241 237 218 205 213 221 224 226 219 215 216 211 217 262 213 248 283 240 246 255 247 249 262 263 269 282 281 274 270 259 248 243 239 231 227 223
232 236 239 236 232 235 236 231 227 219 207 199 204 219 231 236 241 236 226 220 214 218 223 226 227 225 222 223 223 220 217 218 219 216 219 224 231 240 239 238 242 242 242 236 228 229 232 235 244 239 237 240 234 227 217 210 213 219 223 220 214 217 212 207 214 221 201 230 279 260 249 256 257 258 261 264 272 280 272 270 272 256 243 243 242 239 236 229
233 235 236 234 234 234 234 232 225 215 207 200 204 222 235 237 238 234 227 218 213 220 227 227 227 225 226 227 227 227 224 222 224 221 221 226 233 240 242 241 242 242 241 238 233 232 229 230 239 239 231 226 226 230 232 234 231 225 222 217 213 214 212 219 229 225 222 235 266 273 263 256 265 270 259 252 255 255 265 281 273 248 243 242 240 242 240 234
233 236 236 235 234 233 233 230 220 211 209 207 211 226 235 235 235 234 231 224 215 219 226 227 225 224 227 226 224 229 227 222 225 228 227 230 233 238 243 243 241 237 232 228 229 231 228 231 236 235 230 228 235 246 250 249 247 242 241 237 229 224 218 224 242 228 225 231 233 245 274 268 266 265 249 245 251 259 268 277 263 239 234 236 234 238 239 236
232 235 237 238 235 231 230 226 219 212 212 215 221 228 229 229 230 229 229 224 219 219 223 224 223 223 226 226 224 228 229 223 224 228 231 234 236 238 243 245 242 238 236 235 240 240 232 230 231 234 242 248 253 254 250 246 245 242 243 244 239 234 225 219 227 228 223 231 239 245 272 272 265 248 236 244 253 261 266 267 259 236 228 232 229 232 236 235
232 236 239 241 237 231 229 226 219 211 213 222 229 228 227 228 229 229 227 223 221 221 223 226 226 224 224 225 224 225 228 228 227 229 232 236 238 240 243 244 242 238 237 237 240 235 224 223 225 231 244 253 254 254 250 248 243 236 237 240 237 236 234 231 236 240 234 233 232 229 258 263 260 250 249 253 257 260 262 262 255 238 235 236 227 227 231 234
229 234 239 243 241 234 230 227 221 214 214 223 226 223 224 228 230 230 227 226 226 223 222 227 230 229 226 224 223 225 228 231 232 233 234 236 239 240 240 241 241 240 240 241 240 233 221 216 213 212 235 248 249 251 243 237 235 237 240 240 237 239 239 237 238 240 250 247 228 210 248 253 256 265 263 262 262 255 251 253 250 240 240 239 226 223 227 232
229 233 237 242 244 242 238 233 230 226 222 222 223 222 223 225 228 229 226 227 227 223 222 226 228 230 229 225 224 226 228 233 237 237 236 237 240 240 238 239 243 245 246 246 244 241 234 224 217 209 209 226 233 236 238 239 238 238 239 237 237 239 235 233 233 230 241 248 230 225 246 252 255 263 262 256 253 248 245 246 243 236 237 238 227 222 226 230
232 235 234 232 232 237 242 241 238 236 234 229 224 222 223 224 227 228 226 224 223 221 224 227 227 228 230 227 226 227 229 234 238 238 238 237 239 240 239 240 244 245 244 240 239 242 241 234 230 229 230 237 243 248 255 259 249 241 241 240 239 240 236 230 228 229 233 239 239 241 247 253 255 255 257 258 254 252 252 246 237 236 238 237 230 226 229 233
232 237 235 229 221 218 226 236 237 235 237 235 228 224 224 225 226 227 226 226 226 223 224 226 226 227 227 226 226 228 232 235 236 238 240 239 239 239 238 238 239 238 238 237 239 242 238 232 237 241 242 246 252 257 260 262 260 256 251 246 243 244 240 229 227 237 237 231 248 252 249 253 256 253 254 259 258 257 258 250 241 243 243 239 235 230 231 235
230 238 236 234 232 222 216 221 229 230 230 230 227 225 224 224 225 225 226 227 227 223 222 223 224 226 228 227 225 228 232 234 235 237 238 238 237 237 236 235 235 235 235 236 238 240 237 236 241 244 246 251 255 258 256 255 261 262 254 249 248 246 241 233 234 243 238 229 248 258 253 256 261 260 258 260 259 259 261 255 248 246 242 239 237 233 233 236
226 235 237 233 236 235 224 216 217 223 226 226 226 225 223 223 225 226 227 226 224 222 221 222 225 226 226 226 226 229 230 230 233 235 235 234 235 236 235 233 232 232 232 234 236 236 236 238 243 244 246 253 255 255 252 249 251 253 250 250 250 247 247 244 245 249 243 240 253 260 257 259 263 262 262 264 259 255 257 254 249 245 242 239 237 236 235 236
225 230 237 237 236 239 234 224 216 216 221 225 227 227 226 226 227 228 229 227 225 223 220 223 229 229 227 227 228 231 233 234 235 238 237 233 232 236 237 235 234 233 229 230 233 233 233 237 243 245 244 251 254 253 250 246 245 249 251 251 250 249 248 245 247 249 244 244 254 257 255 259 260 257 258 260 256 252 253 254 251 244 239 238 238 237 236 236
228 230 235 241 243 242 240 237 230 225 223 223 225 229 229 229 231 233 234 233 231 228 224 227 232 232 231 231 229 232 239 240 239 241 241 237 237 240 240 239 240 237 232 231 231 232 232 236 243 243 239 248 254 251 247 247 247 248 250 251 248 245 242 240 244 246 242 245 251 249 249 257 260 257 258 258 254 252 252 253 253 245 240 240 241 239 236 238
228 231 235 241 247 245 242 242 240 237 234 227 226 229 231 233 236 236 235 236 236 234 232 234 237 235 232 231 232 238 244 242 240 241 242 241 242 244 244 244 245 243 240 238 235 234 235 236 240 239 234 245 253 252 249 248 246 244 248 251 250 246 243 242 244 246 245 246 247 246 252 262 264 259 258 256 253 251 252 254 254 249 243 240 238 236 238 244
Height
3145 3146 3147 3148 3149 3150 3152 3153 3154 3155 3156 3157 3158 3159 3160 3160 3161 3162 3163 3164 3164 3165 3165 3166 3167 3167 3167 3168 3168 3169 3169 3170 3170 3170 3171 3171 3171 3172 3172 3172 3173 3173 3173 3174 3174 3174 3175 3175 3175 3176 3176 3177 3177 3178 3178 3179 3180 3180 3181 3182 3182 3183 3183 3183 3184 3183 3183 3183 3183 3183 3184 3184 3183 3184 3185 3185 3186 3186 3185 3185 3186 3187 3187 3188 3188 3188 3188 3188
3145 3146 3147 3148 3149 3150 3151 3152 3154 3155 3156 3156 3157 3158 3159 3160 3161 3162 3162 3163 3164 3164 3165 3165 3166 3166 3167 3167 3168 3168 3169 3169 3169 3170 3170 3170 3171 3171 3172 3172 3172 3173 3173 3173 3174 3174 3174 3175 3175 3175 3176 3176 3177 3177 3178 3178 3179 3180 3181 3181 3182 3182 3182 3182 3182 3183 3183 3183 3182 3183 3184 3183 3182 3183 3185 3185 3185 3185 3185 3184 3185 3186 3186 3187 3187 3187 3187 3187
3144 3146 3147 3148 3149 3150 3151 3152 3153 3154 3155 3156 3157 3158 3159 3160 3160 3161 3162 3162 3163 3164 3164 3165 3165 3166 3166 3167 3167 3168 3168 3168 3168 3169 3169 3169 3170 3170 3171 3171 3172 3172 3172 3173 3173 3173 3174 3174 3175 3175 3175 3176 3176 3177 3177 3178 3179 3180 3181 3181 3181 3181 3182 3182 3182 3183 3183 3182 3182 3182 3183 3183 3182 3183 3184 3184 3184 3184 3184 3182 3183 3185 3186 3186 3186 3186 3186 3186
3144 3145 3146 3147 3148 3149 3150 3151 3153 3154 3155 3156 3157 3158 3158 3159 3160 3161 3161 3162 3163 3163 3164 3164 3165 3165 3166 3166 3167 3167 3167 3167 3167 3168 3168 3169 3169 3170 3170 3171 3171 3172 3172 3172 3173 3173 3174 3174 3175 3175 3175 3176 3176 3177 3177 3178 3179 3179 3180 3179 3180 3181 3181 3181 3181 3182 3182 3182 3182 3182 3182 3182 3181 3182 3183 3183 3183 3184 3183 3181 3182 3183 3184 3185 3185 3185 3185 3185
3143 3144 3145 3146 3147 3148 3150 3151 3152 3153 3154 3155 3156 3157 3158 3159 3160 3160 3161 3162 3162 3163 3163 3164 3164 3165 3165 3166 3166 3167 3167 3166 3167 3167 3168 3168 3169 3169 3170 3170 3170 3171 3172 3172 3172 3173 3173 3174 3174 3175 3175 3175 3176 3176 3177 3178 3178 3179 3179 3179 3180 3180 3180 3180 3180 3181 3181 3181 3181 3181 3182 3181 3181 3182 3182 3182 3182 3182 3182 3181 3181 3181 3182 3183 3183 3183 3184 3184
3142 3143 3144 3145 3146 3148 3149 3150 3151 3152 3153 3154 3155 3156 3157 3158 3159 3160 3160 3161 3162 3162 3163 3163 3164 3164 3164 3165 3165 3166 3166 3166 3166 3166 3167 3167 3168 3168 3169 3169 3170 3170 3171 3171 3172 3172 3173 3174 3174 3175 3175 3176 3176 3176 3177 3178 3178 3178 3178 3178 3179 3179 3179 3179 3180 3180 3180 3180 3180 3180 3180 3181 3181 3181 3181 3181 3181 3181 3182 3181 3181 3180 3181 3181 3182 3182 3182 3183
3141 3142 3143 3144 3145 3146 3148 3149 3150 3151 3152 3153 3154 3155 3156 3157 3158 3159 3159 3160 3161 3162 3162 3163 3163 3163 3164 3164 3164 3165 3165 3165 3165 3166 3166 3167 3167 3168 3168 3169 3169 3170 3170 3171 3171 3172 3173 3173 3174 3174 3175 3176 3176 3176 3176 3177 3178 3178 3177 3177 3178 3179 3178 3178 3179 3179 3179 3179 3179 3179 3179 3180 3179 3179 3179 3179 3179 3180 3181 3180 3180 3180 3179 3180 3180 3180 3181 3181
3139 3140 3141 3143 3144 3145 3146 3148 3149 3150 3151 3152 3153 3154 3155 3156 3157 3158 3158 3159 3160 3161 3161 3162 3162 3162 3163 3163 3163 3164 3164 3164 3165 3165 3165 3166 3167 3167 3167 3168 3169 3169 3170 3170 3171 3172 3172 3173 3173 3174 3175 3175 3175 3175 3176 3177 3177 3177 3176 3176 3177 3178 3177 3177 3178 3178 3178 3178 3178 3178 3178 3178 3178 3178 3178 3177 3178 3179 3179 3179 3178 3178 3178 3178 3178 3179 3179 3180
3138 3139 3140 3141 3143 3144 3145 3146 3147 3148 3150 3151 3152 3153 3154 3155 3156 3157 3157 3158 3159 3159 3160 3160 3161 3161 3162 3162 3162 3163 3163 3163 3164 3164 3165 3165 3166 3166 3167 3167 3168 3169 3169 3170 3171 3171 3171 3172 3173 3173 3174 3174 3175 3175 3175 3176 3175 3175 3176 3176 3176 3176 3176 3176 3176 3176 3177 3177 3177 3176 3177 3176 3176 3176 3176 3176 3177 3178 3178 3177 3177 3177 3177 3177 3177 3177 3177 3178
3137 3138 3139 3140 3141 3143 3144 3145 3146 3147 3148 3149 3150 3151 3152 3153 3154 3155 3156 3157 3158 3158 3159 3159 3160 3160 3160 3161 3161 3162 3162 3162 3163 3163 3164 3164 3165 3165 3166 3167 3167 3168 3168 3169 3170 3170 3171 3171 3172 3173 3173 3173 3174 3174 3174 3175 3174 3174 3175 3175 3175 3175 3174 3174 3174 3175 3175 3175 3175 3175 3175 3175 3174 3174 3174 3174 3176 3176 3176 3176 3175 3175 3176 3176 3176 3176 3176 3176
3136 3137 3138 3139 3140 3141 3142 3143 3144 3145 3146 3147 3149 3150 3151 3152 3153 3154 3155 3156 3156 3157 3157 3158 3158 3159 3159 3159 3160 3161 3161 3161 3162 3162 3163 3163 3164 3164 3165 3165 3166 3167 3167 3168 3169 3169 3170 3171 3171 3172 3172 3172 3173 3173 3173 3173 3173 3173 3173 3173 3173 3173 3172 3173 3173 3173 3173 3173 3174 3174 3174 3173 3172 3172 3172 3173 3174 3174 3174 3174 3173 3174 3174 3174 3174 3174 3174 3175
3134 3135 3136 3137 3139 3140 3141 3142 3143 3143 3145 3146 3147 3148 3149 3150 3151 3152 3153 3154 3155 3156 3156 3156 3157 3157 3158 3158 3159 3159 3160 3160 3160 3161 3161 3162 3163 3163 3164 3164 3165 3165 3166 3167 3168 3168 3169 3170 3170 3170 3171 3171 3171 3171 3172 3172 3172 3172 3172 3172 3172 3171 3170 3170 3171 3172 3172 3171 3172 3172 3171 3170 3170 3171 3171 3171 3171 3171 3172 3172 3171 3172 3172 3172 3172 3173 3173 3173
3132 3134 3135 3136 3137 3138 3139 3140 3141 3142 3143 3144 3145 3146 3147 3148 3150 3151 3151 3152 3153 3154 3154 3155 3155 3155 3156 3156 3157 3158 3158 3159 3159 3160 3160 3161 3161 3162 3162 3163 3164 3164 3165 3166 3166 3167 3168 3168 3169 3169 3170 3170 3170 3170 3171 3171 3171 3171 3171 3170 3170 3170 3168 3168 3169 3170 3170 3170 3170 3170 3169 3168 3169 3169 3169 3169 3169 3170 3170 3170 3170 3170 3170 3170 3170 3171 3171 3171
3130 3132 3133 3134 3135 3136 3137 3138 3139 3140 3141 3142 3143 3144 3145 3147 3148 3149 3150 3150 3151 3152 3152 3153 3153 3154 3154 3154 3155 3156 3157 3157 3158 3158 3159 3159 3160 3160 3161 3162 3162 3163 3163 3164 3165 3166 3166 3167 3167 3167 3168 3169 3169 3169 3169 3169 3169 3169 3169 3168 3168 3168 3167 3167 3167 3168 3168 3168 3168 3169 3167 3166 3167 3168 3168 3168 3168 3168 3168 3168 3168 3168 3168 3168 3169 3169 3169 3169
3128 3129 3131 3132 3133 3134 3135 3136 3137 3138 3139 3140 3141 3142 3143 3144 3145 3147 3147 3148 3149 3150 3150 3151 3151 3151 3151 3152 3153 3154 3155 3156 3156 3157 3157 3158 3158 3159 3159 3160 3161 3161 3162 3163 3163 3164 3165 3165 3166 3166 3166 3168 3168 3168 3168 3168 3168 3168 3168 3167 3167 3167 3166 3166 3167 3166 3166 3167 3167 3167 3166 3165 3165 3166 3166 3166 3166 3166 3166 3166 3166 3166 3166 3166 3167 3167 3167 3167
3125 3126 3128 3129 3131 3132 3133 3134 3135 3136 3137 3138 3139 3140 3141 3142 3143 3144 3145 3146 3147 3147 3148 3148 3149 3149 3149 3150 3151 3152 3153 3154 3155 3155 3155 3156 3156 3157 3158 3158 3159 3160 3160 3161 3161 3162 3163 3163 3164 3164 3165 3166 3166 3166 3167 3167 3167 3167 3166 3166 3166 3166 3166 3165 3165 3165 3165 3165 3165 3165 3165 3164 3164 3164 3164 3164 3164 3164 3164 3164 3164 3164 3165 3165 3165 3165 3165 3165
3122 3123 3125 3126 3128 3129 3130 3131 3133 3134 3135 3135 3136 3137 3138 3139 3140 3141 3142 3143 3144 3145 3146 3146 3147 3147 3147 3147 3149 3150 3152 3153 3153 3153 3154 3154 3154 3155 3156 3156 3157 3158 3158 3159 3160 3160 3161 3161 3162 3162 3163 3164 3164 3164 3165 3165 3166 3166 3165 3164 3165 3166 3166 3165 3164 3163 3163 3163 3163 3162 3162 3162 3163 3163 3163 3162 3162 3162 3162 3161 3162 3162 3162 3163 3163 3163 3163 3163
3118 3120 3121 3123 3124 3126 3127 3129 3130 3131 3132 3133 3133 3134 3135 3136 3138 3138 3139 3140 3141 3142 3143 3143 3145 3145 3144 3145 3147 3148 3150 3151 3151 3151 3152 3152 3153 3153 3154 3155 3155 3156 3156 3157 3157 3158 3159 3159 3160 3160 3161 3161 3162 3163 3163 3164 3165 3165 3165 3164 3164 3164 3164 3165 3163 3162 3162 3161 3161 3160 3159 3160 3160 3160 3160 3160 3160 3159 3159 3159 3158 3159 3160 3160 3160 3160 3160 3160
3114 3116 3118 3119 3121 3123 3124 3126 3127 3129 3130 3130 3131 3132 3133 3134 3134 3135 3136 3137 3138 3140 3141 3142 3143 3143 3142 3143 3145 3146 3148 3148 3148 3149 3150 3151 3151 3151 3152 3153 3153 3154 3154 3155 3155 3156 3157 3156 3156 3157 3159 3160 3160 3161 3161 3162 3164 3164 3163 3163 3163 3162 3162 3163 3163 3161 3161 3160 3159 3159 3157 3157 3158 3157 3157 3157 3157 3156 3156 3156 3155 3155 3157 3157 3157 3157 3157 3156
3110 3112 3114 3116 3117 3119 3121 3122 3124 3125 3127 3127 3128 3130 3130 3130 3131 3132 3133 3134 3135 3138 3140 3139 3139 3141 3139 3140 3143 3144 3145 3145 3146 3147 3148 3149 3149 3149 3150 3150 3151 3152 3152 3153 3153 3153 3154 3153 3152 3155 3158 3159 3159 3159 3160 3160 3162 3162 3161 3161 3161 3160 3160 3161 3161 3159 3159 3158 3157 3157 3156 3155 3155 3155 3155 3154 3154 3153 3152 3153 3152 3152 3153 3154 3154 3153 3153 3153
3106 3108 3110 3112 3114 3116 3117 3119 3120 3122 3123 3124 3126 3127 3127 3128 3129 3129 3130 3131 3133 3135 3136 3135 3136 3137 3136 3137 3140 3142 3143 3142 3143 3145 3145 3147 3147 3147 3148 3148 3149 3150 3150 3152 3150 3150 3152 3149 3149 3154 3157 3157 3158 3158 3158 3158 3159 3159 3159 3159 3158 3158 3158 3159 3159 3157 3158 3156 3154 3155 3153 3151 3152 3152 3152 3151 3150 3149 3149 3149 3149 3149 3150 3150 3150 3150 3150 3150
3102 3104 3106 3108 3109 3111 3113 3115 3117 3118 3120 3121 3122 3124 3125 3126 3126 3127 3127 3128 3129 3131 3132 3133 3133 3132 3132 3134 3136 3138 3139 3139 3140 3142 3143 3144 3145 3145 3146 3147 3147 3148 3149 3149 3148 3148 3148 3146 3148 3153 3155 3155 3156 3156 3157 3157 3157 3157 3157 3156 3156 3156 3156 3157 3156 3155 3155 3154 3152 3152 3149 3147 3148 3148 3149 3148 3145 3145 3146 3146 3145 3145 3145 3146 3146 3146 3146 3147
3097 3099 3101 3103 3105 3108 3109 3111 3112 3114 3116 3117 3120 3121 3123 3124 3124 3125 3125 3124 3124 3126 3127 3128 3129 3129 3129 3130 3132 3135 3136 3136 3137 3138 3140 3141 3142 3144 3143 3144 3146 3146 3147 3145 3145 3146 3144 3144 3147 3150 3152 3152 3152 3153 3154 3154 3154 3155 3155 3154 3153 3154 3155 3154 3153 3153 3153 3152 3150 3149 3145 3142 3143 3143 3143 3144 3142 3141 3142 3141 3141 3141 3141 3141 3141 3142 3142 3143
3093 3095 3097 3098 3101 3103 3104 3106 3108 3109 3112 3114 3117 3119 3120 3121 3121 3123 3123 3121 3118 3119 3123 3124 3125 3124 3124 3125 3128 3132 3132 3133 3134 3134 3137 3138 3140 3142 3140 3142 3144 3144 3143 3143 3144 3143 3142 3144 3145 3147 3149 3150 3150 3150 3151 3152 3152 3152 3152 3152 3152 3153 3154 3153 3153 3151 3149 3148 3147 3147 3141 3135 3137 3138 3136 3139 3139 3137 3138 3138 3138 3137 3137 3137 3136 3137 3138 3139
3089 3091 3093 3095 3097 3099 3101 3101 3102 3106 3109 3112 3115 3117 3118 3118 3119 3121 3121 3119 3113 3112 3117 3119 3118 3119 3120 3121 3124 3127 3128 3128 3129 3129 3132 3136 3138 3139 3138 3140 3140 3140 3141 3141 3141 3139 3139 3142 3143 3144 3146 3147 3148 3148 3148 3149 3149 3150 3150 3150 3150 3151 3152 3151 3152 3150 3147 3145 3144 3146 3140 3131 3132 3135 3133 3133 3134 3133 3134 3134 3134 3134 3134 3134 3133 3133 3134 3134
3084 3087 3089 3091 3093 3095 3096 3096 3100 3104 3106 3109 3113 3114 3115 3115 3117 3119 3119 3118 3109 3104 3109 3112 3113 3113 3114 3115 3118 3125 3125 3121 3124 3126 3128 3133 3135 3136 3136 3136 3136 3137 3139 3140 3139 3137 3135 3138 3140 3142 3143 3144 3145 3145 3146 3147 3147 3147 3147 3148 3148 3149 3149 3149 3149 3149 3146 3145 3143 3145 3143 3131 3125 3129 3131 3131 3131 3130 3130 3130 3130 3130 3129 3129 3130 3130 3130 3130
3079 3082 3084 3086 3088 3091 3091 3093 3098 3101 3102 3107 3109 3111 3112 3112 3116 3116 3119 3120 3105 3095 3101 3105 3106 3107 3107 3110 3115 3122 3119 3112 3118 3123 3124 3129 3131 3132 3133 3131 3132 3134 3136 3139 3137 3133 3132 3135 3137 3138 3140 3141 3141 3141 3143 3145 3145 3144 3144 3146 3146 3147 3147 3146 3147 3147 3144 3143 3142 3142 3144 3135 3119 3118 3125 3126 3126 3126 3126 3126 3126 3126 3125 3125 3126 3126 3126 3127
3073 3076 3079 3081 3084 3086 3088 3090 3093 3096 3099 3103 3105 3107 3108 3109 3113 3114 3119 3120 3100 3088 3094 3097 3099 3101 3103 3107 3111 3115 3112 3108 3115 3118 3120 3126 3127 3128 3128 3128 3129 3130 3133 3135 3131 3129 3130 3132 3134 3135 3137 3137 3137 3139 3141 3142 3142 3141 3142 3143 3144 3145 3145 3144 3144 3144 3143 3142 3138 3137 3143 3137 3116 3111 3120 3122 3121 3121 3120 3122 3122 3122 3122 3121 3122 3122 3122 3123
3067 3070 3073 3076 3078 3081 3083 3084 3086 3091 3096 3099 3102 3104 3105 3107 3110 3112 3118 3113 3093 3085 3090 3091 3094 3097 3099 3103 3106 3108 3107 3107 3111 3114 3118 3123 3122 3123 3123 3125 3127 3127 3129 3130 3128 3129 3129 3129 3132 3133 3133 3133 3134 3137 3138 3139 3139 3138 3140 3140 3141 3142 3142 3143 3142 3141 3142 3138 3133 3134 3140 3135 3115 3107 3116 3118 3116 3117 3117 3117 3118 3118 3118 3118 3118 3119 3119 3120
3061 3064 3067 3070 3072 3075 3078 3078 3081 3087 3092 3095 3098 3100 3102 3105 3106 3111 3115 3102 3087 3085 3086 3087 3091 3093 3095 3099 3100 3102 3104 3104 3107 3110 3115 3117 3117 3119 3120 3122 3125 3124 3125 3125 3125 3126 3125 3126 3129 3128 3129 3130 3132 3134 3135 3136 3136 3136 3138 3138 3140 3140 3139 3141 3139 3140 3141 3131 3127 3131 3134 3135 3121 3107 3110 3113 3112 3115 3115 3114 3115 3114 3115 3115 3115 3115 3116 3117
3056 3058 3061 3063 3066 3070 3073 3074 3077 3082 3087 3091 3094 3097 3100 3102 3104 3107 3102 3090 3085 3084 3081 3083 3088 3089 3091 3094 3096 3099 3101 3102 3104 3106 3109 3112 3113 3115 3115 3117 3120 3121 3121 3120 3120 3120 3121 3122 3124 3124 3126 3127 3129 3131 3132 3133 3133 3134 3135 3136 3138 3138 3137 3138 3137 3139 3138 3126 3122 3126 3128 3131 3121 3107 3108 3111 3110 3113 3113 3112 3112 3112 3112 3112 3112 3113 3114 3115
3051 3053 3055 3057 3060 3064 3066 3070 3074 3077 3081 3085 3089 3092 3095 3098 3100 3096 3089 3086 3086 3079 3075 3080 3083 3084 3089 3091 3094 3096 3097 3098 3100 3102 3104 3107 3108 3109 3110 3111 3113 3117 3116 3115 3117 3118 3116 3117 3120 3122 3123 3124 3126 3128 3128 3129 3129 3131 3132 3134 3137 3138 3137 3136 3135 3135 3131 3123 3121 3124 3125 3123 3111 3104 3108 3110 3110 3111 3111 3110 3110 3110 3110 3109 3110 3111 3112 3114
3047 3049 3051 3051 3054 3057 3061 3065 3068 3070 3074 3078 3082 3084 3089 3092 3087 3082 3081 3083 3082 3074 3073 3078 3079 3082 3086 3087 3089 3091 3093 3095 3097 3099 3101 3103 3104 3105 3106 3107 3109 3111 3111 3112 3114 3115 3114 3113 3115 3117 3117 3119 3121 3122 3122 3123 3124 3126 3127 3130 3132 3135 3136 3134 3132 3129 3124 3120 3119 3121 3123 3116 3105 3103 3106 3107 3109 3109 3108 3108 3108 3107 3108 3108 3108 3109 3110 3111
3043 3045 3046 3047 3050 3053 3056 3059 3062 3064 3066 3069 3072 3076 3081 3080 3075 3075 3075 3074 3075 3074 3074 3076 3077 3080 3082 3083 3084 3086 3090 3091 3092 3096 3097 3098 3099 3099 3100 3102 3104 3106 3109 3111 3110 3110 3112 3110 3109 3111 3111 3113 3114 3115 3117 3119 3121 3122 3124 3127 3127 3128 3130 3127 3125 3123 3120 3118 3117 3119 3118 3109 3102 3102 3102 3103 3106 3107 3107 3107 3106 3105 3106 3106 3106 3107 3108 3109
3039 3041 3043 3044 3045 3047 3050 3052 3055 3059 3058 3059 3064 3067 3069 3068 3065 3066 3063 3063 3072 3075 3072 3074 3076 3077 3079 3080 3080 3083 3086 3086 3088 3092 3092 3092 3093 3093 3094 3096 3098 3101 3105 3107 3106 3106 3108 3105 3105 3107 3108 3110 3111 3112 3115 3117 3118 3119 3122 3124 3122 3123 3124 3122 3120 3119 3119 3118 3114 3114 3110 3101 3100 3100 3100 3102 3103 3104 3105 3105 3105 3105 3104 3104 3105 3105 3106 3107
3036 3037 3038 3038 3038 3041 3044 3047 3049 3051 3050 3051 3055 3056 3055 3053 3052 3053 3052 3057 3068 3071 3070 3073 3073 3073 3075 3076 3076 3079 3082 3082 3084 3087 3087 3088 3088 3088 3089 3090 3093 3096 3097 3100 3101 3102 3104 3103 3102 3104 3105 3107 3109 3110 3112 3113 3114 3116 3118 3117 3117 3119 3121 3121 3119 3117 3119 3118 3109 3105 3101 3098 3099 3096 3095 3100 3100 3101 3103 3101 3102 3103 3102 3102 3102 3103 3104 3105
3030 3031 3031 3030 3033 3036 3039 3043 3045 3044 3044 3044 3044 3043 3042 3040 3042 3046 3050 3054 3061 3065 3067 3068 3066 3068 3070 3071 3072 3075 3078 3079 3081 3082 3083 3084 3083 3082 3084 3086 3089 3092 3092 3096 3098 3100 3102 3100 3099 3101 3102 3104 3106 3108 3108 3109 3110 3111 3112 3112 3115 3119 3120 3120 3120 3117 3119 3116 3104 3098 3097 3096 3096 3090 3088 3094 3097 3098 3100 3099 3099 3100 3100 3100 3100 3101 3103 3103
3025 3025 3023 3024 3029 3032 3034 3038 3039 3038 3037 3036 3034 3034 3034 3032 3034 3041 3045 3050 3057 3060 3062 3061 3061 3064 3066 3067 3068 3071 3074 3075 3076 3077 3079 3080 3078 3077 3080 3083 3085 3088 3091 3094 3097 3097 3099 3098 3098 3098 3099 3102 3104 3105 3105 3105 3107 3108 3108 3110 3113 3115 3115 3117 3119 3116 3117 3114 3102 3094 3093 3090 3088 3086 3085 3089 3093 3095 3096 3096 3096 3096 3098 3099 3099 3100 3101 3102
3019 3019 3016 3018 3024 3028 3030 3032 3034 3033 3030 3028 3028 3028 3025 3023 3027 3035 3041 3048 3055 3055 3054 3054 3057 3060 3062 3064 3065 3066 3069 3069 3069 3072 3073 3074 3073 3073 3076 3080 3082 3085 3088 3091 3093 3094 3096 3096 3095 3094 3096 3100 3100 3099 3100 3101 3104 3105 3105 3107 3109 3110 3111 3112 3112 3110 3111 3110 3102 3094 3088 3082 3079 3081 3083 3086 3089 3092 3093 3093 3094 3094 3096 3098 3098 3099 3100 3101
3013 3012 3009 3013 3019 3023 3026 3028 3028 3026 3022 3022 3023 3019 3017 3018 3023 3030 3037 3044 3049 3048 3046 3048 3053 3056 3056 3059 3061 3062 3064 3064 3065 3067 3068 3069 3069 3069 3072 3076 3079 3083 3086 3088 3089 3091 3092 3093 3092 3091 3093 3095 3093 3093 3095 3097 3099 3100 3101 3103 3104 3106 3108 3108 3107 3106 3107 3106 3101 3095 3085 3075 3076 3079 3080 3083 3086 3088 3090 3091 3092 3093 3094 3095 3097 3097 3098 3099
3008 3005 3003 3009 3015 3018 3023 3021 3016 3016 3016 3018 3018 3014 3013 3016 3020 3024 3030 3037 3042 3043 3044 3046 3049 3051 3051 3055 3057 3057 3059 3061 3061 3063 3063 3064 3064 3065 3067 3071 3076 3080 3082 3083 3084 3086 3087 3087 3088 3088 3087 3087 3089 3091 3094 3095 3095 3095 3096 3096 3097 3101 3104 3106 3103 3100 3102 3100 3096 3094 3082 3069 3074 3079 3078 3080 3084 3085 3088 3089 3090 3091 3092 3093 3094 3095 3096 3097
3002 2999 2999 3004 3009 3013 3016 3011 3008 3009 3009 3009 3010 3009 3010 3012 3016 3020 3024 3031 3036 3039 3042 3043 3044 3046 3047 3050 3053 3054 3055 3057 3057 3057 3057 3057 3059 3062 3064 3068 3073 3076 3078 3079 3080 3082 3083 3083 3084 3084 3083 3085 3088 3089 3091 3092 3091 3092 3093 3093 3096 3097 3097 3099 3096 3093 3095 3093 3090 3093 3082 3065 3069 3078 3078 3079 3081 3082 3085 3086 3087 3089 3089 3091 3092 3093 3094 3094
2995 2996 2997 2998 3002 3008 3008 3004 3004 3004 3002 3003 3006 3008 3009 3012 3014 3017 3021 3026 3029 3032 3035 3036 3037 3041 3042 3045 3050 3051 3051 3052 3053 3052 3052 3054 3057 3060 3063 3065 3068 3071 3073 3075 3076 3078 3079 3079 3080 3082 3082 3084 3084 3085 3086 3088 3089 3089 3088 3089 3090 3089 3088 3092 3091 3090 3091 3086 3086 3092 3081 3064 3066 3073 3075 3078 3079 3080 3082 3083 3085 3086 3087 3088 3089 3089 3091 3092
2990 2993 2994 2991 2994 3000 2998 2995 2998 2999 2999 3001 3003 3005 3008 3010 3011 3013 3017 3019 3020 3025 3029 3029 3032 3036 3039 3043 3047 3048 3048 3048 3048 3048 3050 3052 3054 3056 3059 3060 3062 3065 3067 3069 3072 3073 3073 3073 3075 3079 3081 3082 3081 3080 3080 3081 3083 3082 3081 3083 3083 3084 3088 3090 3089 3092 3086 3078 3083 3087 3072 3062 3067 3070 3071 3074 3075 3076 3078 3079 3082 3083 3084 3085 3085 3086 3088 3089
2987 2988 2989 2987 2987 2988 2988 2990 2994 2995 2996 2998 2997 3000 3004 3004 3004 3008 3012 3014 3017 3021 3024 3024 3027 3032 3035 3040 3043 3043 3044 3044 3043 3044 3047 3049 3050 3053 3055 3055 3057 3060 3063 3066 3068 3069 3067 3068 3070 3073 3074 3073 3070 3069 3069 3072 3076 3076 3075 3077 3078 3081 3084 3084 3086 3087 3077 3071 3079 3076 3062 3061 3068 3068 3068 3071 3072 3073 3075 3077 3078 3080 3081 3082 3082 3083 3084 3085
2982 2980 2982 2984 2981 2978 2980 2985 2989 2989 2991 2994 2993 2995 2998 2998 2998 3003 3007 3011 3014 3017 3019 3020 3025 3029 3031 3035 3036 3036 3036 3038 3040 3041 3043 3044 3046 3048 3050 3052 3053 3056 3059 3062 3063 3064 3063 3063 3064 3064 3063 3061 3059 3060 3065 3067 3069 3069 3069 3071 3073 3075 3077 3080 3081 3075 3069 3072 3072 3062 3060 3064 3065 3066 3067 3068 3069 3071 3072 3074 3075 3076 3077 3078 3079 3080 3081 3083
2975 2972 2974 2978 2976 2973 2972 2976 2979 2980 2983 2986 2985 2987 2990 2991 2995 2999 3002 3005 3009 3013 3015 3017 3021 3022 3023 3025 3027 3027 3030 3034 3037 3037 3038 3040 3041 3043 3045 3047 3050 3051 3054 3057 3058 3059 3058 3058 3058 3057 3056 3055 3055 3060 3065 3064 3062 3062 3064 3066 3067 3069 3071 3073 3069 3062 3067 3074 3060 3052 3062 3064 3057 3063 3067 3064 3066 3068 3069 3071 3072 3072 3074 3075 3076 3077 3078 3079
2968 2966 2968 2971 2971 2968 2967 2967 2970 2972 2975 2977 2978 2980 2984 2986 2990 2993 2996 2999 3004 3008 3010 3012 3013 3012 3013 3017 3021 3023 3027 3032 3032 3031 3032 3035 3037 3039 3041 3044 3046 3047 3050 3051 3052 3053 3053 3052 3052 3052 3051 3051 3052 3057 3061 3060 3058 3058 3060 3060 3061 3064 3063 3060 3057 3057 3065 3065 3050 3050 3062 3058 3052 3060 3062 3061 3065 3065 3065 3068 3069 3070 3071 3072 3073 3073 3074 3075
2962 2961 2962 2963 2963 2964 2964 2963 2965 2968 2969 2971 2973 2975 2978 2980 2982 2986 2990 2995 2998 3000 3003 3003 3002 3003 3007 3013 3018 3020 3021 3024 3022 3022 3025 3030 3032 3033 3035 3038 3039 3041 3044 3045 3046 3047 3047 3046 3046 3047 3048 3047 3048 3051 3054 3056 3056 3054 3054 3054 3055 3055 3052 3051 3052 3054 3059 3056 3048 3052 3058 3051 3050 3056 3057 3059 3062 3061 3062 3064 3065 3067 3068 3067 3069 3069 3070 3071
2956 2955 2956 2958 2958 2960 2961 2961 2964 2965 2966 2967 2967 2969 2972 2974 2976 2981 2985 2988 2989 2992 2995 2995 2994 2999 3005 3009 3013 3013 3013 3014 3013 3015 3020 3024 3026 3027 3029 3030 3032 3035 3038 3039 3040 3041 3041 3040 3042 3044 3045 3042 3041 3044 3048 3050 3051 3050 3049 3049 3048 3045 3044 3046 3048 3050 3054 3050 3046 3052 3053 3044 3044 3051 3053 3055 3057 3057 3058 3059 3060 3063 3063 3064 3065 3065 3066 3068
2951 2952 2953 2954 2954 2956 2957 2958 2961 2962 2961 2962 2962 2964 2967 2968 2972 2977 2979 2980 2983 2986 2988 2989 2992 2997 3001 3004 3006 3005 3005 3008 3010 3013 3018 3020 3021 3022 3024 3025 3027 3030 3032 3033 3034 3035 3036 3036 3038 3040 3040 3035 3033 3037 3041 3044 3046 3046 3042 3037 3034 3034 3038 3041 3041 3043 3045 3043 3044 3049 3044 3034 3038 3047 3049 3049 3051 3052 3054 3055 3057 3059 3059 3060 3061 3062 3063 3064
2947 2948 2950 2950 2950 2950 2952 2954 2956 2956 2956 2957 2959 2962 2963 2965 2969 2974 2974 2975 2979 2982 2984 2987 2990 2994 2995 2996 2997 2998 3000 3006 3009 3012 3015 3016 3017 3019 3020 3021 3023 3024 3026 3029 3029 3029 3031 3032 3033 3036 3034 3029 3028 3033 3036 3040 3042 3036 3026 3019 3020 3027 3033 3035 3034 3034 3036 3038 3040 3039 3032 3030 3038 3044 3043 3044 3046 3047 3049 3050 3052 3053 3054 3056 3057 3059 3060 3060